Weather Roundup
Issued by NWS Chicago, IL

Home | Current Version | Previous Version | Text Only | Print | Product List | Glossary On
Versions: 1 2 3 4 5 6 7 8 9 10 11 12 13 14 15 16 17 18 19 20 21 22 23 24 25 26 27 28 29 30 31 32 33 34 35 36 37 38 39 40 41 42 43 44 45 46 47 48 49 50
000
NZUS59 KLOT 021500
HRRLOT

CHICAGO AREA WEATHER ROUNDUP
NATIONAL WEATHER SERVICE CHICAGO/ROMEOVILLE IL
900 AM CST MON MAR 02 2015

NOTE: "FAIR" INDICATES FEW OR NO CLOUDS BELOW 12,000 FEET WITH NO
SIGNIFICANT WEATHER AND/OR OBSTRUCTIONS TO VISIBILITY.

* THESE STATIONS ARE NOT UNDER NWS QUALITY CONTROL. THEY ALSO MAY NOT
  REPORT WEATHER SUCH AS PRECIPITATION OR FOG.

ILZ005-006-012>014-019>023-021600-
NORTHEAST ILLINOIS

CITY           SKY/WX    TMP DP  RH WIND       PRES   REMARKS
OHARE          MOSUNNY   20  11  68 N9        30.50R WCI   9
MIDWAY         MOSUNNY   24  13  62 NW12      30.51R WCI  13
AURORA         SUNNY     11   5  77 NW9       30.52R WCI  -2
WAUKEGAN       NOT AVBL
DUPAGE AIRPORT SUNNY     20  11  68 N8        30.50R WCI  10
WHEELING       SUNNY     21  10  62 NW10G17   30.52R WCI  10
NORTHERLY IS     N/A     25  13  60 W6          N/A  WCI  18
$$

WIZ051-052-058>065-066-070>072-021600-
SOUTHEAST WISCONSIN

CITY           SKY/WX    TMP DP  RH WIND       PRES   REMARKS
MILWAUKEE      MOSUNNY   20   8  60 NW12      30.49R WCI   8
KENOSHA*       SUNNY     18  10  71 NW9       30.49R WCI   7
RACINE*        SUNNY     18   9  68 W9        30.51R WCI   7
WAUKESHA       SUNNY     16   7  67 W7        30.50R WCI   6
$$

INZ001>003-010>013-019-020-021600-
NORTHWEST INDIANA

CITY           SKY/WX    TMP DP  RH WIND       PRES   REMARKS
GARY*          MOSUNNY   21   9  58 W6        30.52R WCI  14
MICHIGAN CITY* NOT AVBL
RENSSELAER*    NOT AVBL
$$

LMZ740>746-021600-
SOUTHERN LAKE MICHIGAN

STATION/POSITION TIME  SKY/WX   TEMP WIND        PRES    VSBY
                                AIR  DIR/SP/G
                 (UTC)          (F)  (DEG/KT/KT) (MB)    (MI)
HARRISON CRIB    1400            20  290/ 12/ 14   N/A
BURNHAM HARBOR   1500            25  280/  6/ 12   N/A
CALUMET HARBOR   1400            22  280/  5/  8 1031.7R
BURNS HARBOR     NOT AVBL
MICHIGAN CITY    1400            18  220/  8/ 10   N/A
$$

ABBREVIATIONS USED IN REMARKS
   TC - TEMPERATURE IN CELSIUS
  WCI - WIND CHILL INDEX
   HX - HEAT INDEX
  VSB - VISIBILITY
$$


USA.gov is the U.S. government's official web portal to all federal, state and local government web resources and services.